Satellite-Ground Cal/Val Region Overpasses Predictions

Prediction of Satellite NPP Overpassing Cal/Val Region: PacNW

Region Location: (Latitude: 10.00, Longitude: 139.50) to (Latitude: 22.70, Longitude: 165.60).

Table of predicted overpasses for the next 14.0 days since TLE Epoch: 12/1/2012
Interval Starting Time Starting Location Ending Time Ending Location
1 12/02/2012 03:15:22 ( 10.02, 150.38) 12/02/2012 03:18:58 ( 22.70, 147.36)
2 12/02/2012 15:47:16 ( 22.66, 147.61) 12/02/2012 15:50:51 ( 10.04, 144.60)
3 12/03/2012 02:56:20 ( 10.04, 155.13) 12/03/2012 02:59:55 ( 22.66, 152.13)
4 12/03/2012 15:28:13 ( 22.69, 152.37) 12/03/2012 15:31:49 ( 10.01, 149.36)
5 12/04/2012 02:37:18 ( 10.01, 159.89) 12/04/2012 02:40:54 ( 22.69, 156.88)
6 12/04/2012 15:09:12 ( 22.66, 157.12) 12/04/2012 15:12:47 ( 10.04, 154.12)
7 12/05/2012 02:18:16 ( 10.04, 164.65) 12/05/2012 02:21:51 ( 22.66, 161.64)
8 12/05/2012 14:50:09 ( 22.69, 161.89) 12/05/2012 14:53:45 ( 10.01, 158.87)
9 12/06/2012 03:40:44 ( 10.02, 144.04) 12/06/2012 03:44:19 ( 22.64, 141.03)
10 12/06/2012 14:32:21 ( 18.38, 165.59) 12/06/2012 14:34:43 ( 10.04, 163.64)
11 12/06/2012 16:12:38 ( 22.65, 141.27) 12/06/2012 16:14:42 ( 15.38, 139.50)
12 12/07/2012 03:21:43 ( 10.05, 148.79) 12/07/2012 03:25:18 ( 22.67, 145.78)
13 12/07/2012 15:53:35 ( 22.68, 146.03) 12/07/2012 15:57:10 ( 10.06, 143.03)
14 12/08/2012 03:02:40 ( 10.03, 153.55) 12/08/2012 03:06:15 ( 22.65, 150.55)
15 12/08/2012 15:34:34 ( 22.64, 150.78) 12/08/2012 15:38:09 ( 10.02, 147.78)
16 12/09/2012 02:43:38 ( 10.00, 158.32) 12/09/2012 02:47:14 ( 22.68, 155.30)
17 12/09/2012 15:15:31 ( 22.67, 155.55) 12/09/2012 15:19:06 ( 10.05, 152.54)
18 12/10/2012 02:24:36 ( 10.04, 163.07) 12/10/2012 02:28:11 ( 22.66, 160.06)
19 12/10/2012 14:56:29 ( 22.69, 160.31) 12/10/2012 15:00:05 ( 10.01, 157.29)
20 12/11/2012 02:08:16 ( 19.53, 165.60) 12/11/2012 02:09:10 ( 22.69, 164.81)
21 12/11/2012 03:47:04 ( 10.02, 142.46) 12/11/2012 03:50:35 ( 22.41, 139.51)
22 12/11/2012 14:37:27 ( 22.66, 165.06) 12/11/2012 14:41:02 ( 10.03, 162.06)
23 12/11/2012 16:18:57 ( 22.65, 139.68) 12/11/2012 16:19:09 ( 21.95, 139.51)
24 12/12/2012 03:28:02 ( 10.06, 147.21) 12/12/2012 03:31:37 ( 22.68, 144.20)
25 12/12/2012 15:59:55 ( 22.67, 144.45) 12/12/2012 16:03:30 ( 10.05, 141.45)
26 12/13/2012 03:09:00 ( 10.03, 151.97) 12/13/2012 03:12:35 ( 22.65, 148.97)
27 12/13/2012 15:40:52 ( 22.69, 149.21) 12/13/2012 15:44:28 ( 10.01, 146.20)
28 12/14/2012 02:49:57 ( 10.01, 156.73) 12/14/2012 02:53:33 ( 22.69, 153.72)
29 12/14/2012 15:21:51 ( 22.65, 153.96) 12/14/2012 15:25:26 ( 10.03, 150.96)
30 12/15/2012 02:30:56 ( 10.05, 161.48) 12/15/2012 02:34:31 ( 22.67, 158.48)


NCC Satellite Cal/Val Overpasses Prediction Service
